Location: Prairie Dale
(45.6972°N, 104.5033°W)
Time: 17:45:44
(UTC+00:00)

STARS - Pass Details

Date: 29 June 2022
Orbit: 620 x 637 km, 98.2° (Epoch: 18 August)

Event Time Altitude Azimuth Distance (km) Brightness Sun altitude
Rises 05:41:13 0° 14° (NNE) 2,938 ? -18.7°
Reaches altitude 10° 05:43:26 10° 15° (NNE) 2,022 ? -18.8°
Maximum altitude 05:47:50 82° 102° (ESE) 642 ? -19.1°
Enters shadow 05:49:18 42° 186° (S) 904 ? -19.1°
